Location: ??????
(41.3164°N, 22.6615°E)
Time: 15:04:48
(UTC+00:00)

H-2A R/B - Pass Details

Date: 23 May 2022
Orbit: 576 x 652 km, 98.5° (Epoch: 03 July)

Event Time Altitude Azimuth Distance (km) Brightness Sun altitude
Rises 18:18:33 0° 18° (NNE) 2,800 5.6 -5.6°
Reaches altitude 10° 18:20:45 10° 23° (NNE) 1,894 4.7 -6.0°
Maximum altitude 18:24:45 53° 101° (E) 711 2.1 -6.6°
Drops below altitude 10° 18:28:45 10° 179° (S) 1,888 4.2 -7.2°
Sets 18:30:56 0° 184° (S) 2,790 5.1 -7.5°
